Time (hhmmss), Depth12, Depth35, dec_lat, dec_lon, EDO_knt, SSCND, SSTMP, GPS_COG, GPS_SOG, Gyro, Air_Temp, IMET_BPR, HRH, Salinity, Wnd_Dir, Wnd_Spd, 
10:29:30, , , 43.618955, 13.506514, 0.00 , +32.6065, +07.2595, 141.3, 0.03, 100.3, 5.593, 1000.74, 74.100, 31.8262, 300.5, 0.0441, 
10:30:28, , , 43.618958, 13.506516, 0.00 , +32.6124, +07.2756, 000.0, 0.02, 100.3, 5.604, 1000.71, 73.847, 31.8166, 311.0, 0.2200, 
10:31:28, , , 43.618956, 13.506514, 0.00 , +32.6061, +07.2497, , , 100.4, 5.650, 1000.75, 73.507, 31.8337, 209.7, 0.0103, 
10:32:28, , , 43.618958, 13.506511, 0.00 , +32.6068, +07.2489, 324.9, 0.07, 100.3, 5.655, 1000.79, 73.042, 31.8351, 298.6, 0.0361, 
10:33:28, , , 43.618965, 13.506508, 0.00 , +32.6021, +07.2571, 270.0, 0.01, 100.2, 5.678, 1000.81, 72.793, 31.8225, 286.0, 0.0439, 
10:34:28, , , 43.618961, 13.506511, 0.00 , +32.6019, +07.2574, 068.2, 0.01, 100.3, 5.688, 1000.95, 72.625, 31.8220, 259.1, 0.0247, 
10:35:29, , , 43.618956, 13.506518, 0.00 , +32.5987, +07.2801, 029.7, 0.02, 100.3, 5.715, 1000.86, 72.316, 31.7977, 319.8, 0.0473, 
10:36:29, , , 43.618961, 13.506521, 0.00 , +32.5982, +07.2758, 119.1, 0.03, 100.4, 5.757, 1000.77, 72.146, 31.8011, 334.6, 0.1149, 
10:37:28, , , 43.618961, 13.506526, 0.00 , +32.6021, +07.2758, 166.0, 0.02, 100.3, 5.718, 1000.89, 71.557, 31.8053, 340.3, 0.0291, 
10:38:29, , , 43.618961, 13.506523, 0.00 , +32.5917, +07.3023, 008.1, 0.02, , 5.772, 1000.85, 71.670, 31.7697, 346.2, 0.0430, 
10:39:28, , , 43.619016, 13.506518, 0.00 , +32.5961, +07.2879, 182.9, 0.08, 100.3, 5.766, 1000.85, 71.089, 31.7877, 346.3, 0.0556, 
10:40:28, , , 43.619016, 13.506518, 0.00 , +32.5999, +07.2873, 182.9, 0.08, 100.4, 5.742, 1000.92, 70.853, 31.7924, 322.3, 0.1585, 
10:41:28, , , 43.619016, 13.506518, 0.00 , +32.5980, +07.2752, 182.9, 0.08, 100.3, 5.784, 1000.74, 70.615, 31.8014, 323.9, 0.1389, 
10:42:29, , , 43.619016, 13.506518, 0.00 , +32.5960, +07.2811, 182.9, 0.08, 100.0, 5.841, 1000.87, 70.766, 31.7938, 324.6, 0.1703, 
10:43:28, , , 43.619016, 13.506518, 0.00 , +32.5924, +07.2303, 182.9, 0.08, 099.9, 5.906, 1000.84, 70.603, 31.8367, 340.9, 0.0639, 
10:44:28, , , 43.619016, 13.506518, 0.00 , +32.5781, +07.2280, 182.9, 0.08, 100.3, 5.918, 1000.78, 70.624, 31.8233, 346.3, 0.0556, 
10:45:28, , , 43.619016, 13.506518, 0.00 , +32.5769, +07.2211, 182.9, 0.08, 100.2, 5.899, 1000.82, 70.083, 31.8284, 2.9, 0.0412, 
10:46:28, , , 43.619016, 13.506518, 0.00 , +32.5628, +07.2257, 182.9, 0.08, 100.2, 5.917, 1000.78, 70.114, 31.8089, 331.3, 0.0910, 
10:47:29, , , 43.619016, 13.506518, 0.00 , +32.5659, +07.2434, 182.9, 0.08, 100.3, 5.957, 1000.81, 70.117, 31.7960, 323.8, 0.0977, 
10:48:28, , , 43.619016, 13.506518, 0.00 , +32.5627, +07.2371, 182.9, 0.08, 100.4, 6.019, 1000.77, 70.167, 31.7983, 2.9, 0.0412, 
10:49:28, , , 43.619016, 13.506518, 0.00 , +32.5641, +07.2395, 182.9, 0.08, 100.5, 6.139, 1000.83, 70.505, 31.7976, 2.9, 0.0412, 
10:50:28, , , 43.619016, 13.506518, 0.00 , +32.5640, +07.2422, 182.9, 0.08, 100.5, 6.243, 1000.89, 70.220, 31.7950, 341.1, 0.0640, 
10:51:29, , , 43.619016, 13.506518, 0.00 , +32.5642, +07.2528, 182.9, 0.08, 100.3, 6.327, 1000.85, 69.845, 31.7855, 341.0, 0.0640, 
10:52:28, , , 43.619016, 13.506518, 0.00 , +32.5701, +07.2523, 182.9, 0.08, 100.4, 6.293, 1000.91, 68.899, 31.7923, 337.1, 0.0728, 
10:53:28, , , 43.619016, 13.506518, 0.00 , +32.5737, +07.2637, 182.9, 0.08, 100.5, 6.365, 1000.81, 69.174, 31.7857, 339.8, 0.1893, 
10:54:28, , , 43.619016, 13.506518, 0.00 , +32.5729, +07.2402, 182.9, 0.08, 100.5, 6.408, 1000.89, 68.781, 31.8065, 331.5, 0.0911, 
10:55:28, , , 43.619016, 13.506518, 0.00 , +32.5707, +07.2628, 182.9, 0.08, 100.4, 6.502, 1000.86, 69.642, 31.7833, 340.0, 0.0863, 
10:56:28, , , 43.619016, 13.506518, 0.00 , +32.5738, +07.2665, 182.9, 0.08, 100.4, 6.602, 1000.94, 70.080, 31.7833, 337.1, 0.0728, 
10:57:28, , , 43.619016, 13.506518, 0.00 , +32.5753, +07.2710, 182.9, 0.08, 100.4, 6.590, 1000.96, 70.252, 31.7807, 319.9, 0.1978, 
10:58:28, , , 43.619016, 13.506518, 0.00 , +32.5783, +07.2608, 182.9, 0.08, 100.5, 6.593, 1000.93, 70.368, 31.7934, 327.7, 0.1101, 
10:59:28, , , 43.619016, 13.506518, 0.00 , +32.5833, +07.2696, 182.9, 0.08, 100.4, 6.642, 1000.96, 70.938, 31.7907, 324.0, 0.1389, 
11:00:28, , , 43.619016, 13.506518, 0.00 , +32.5888, +07.2726, 182.9, 0.08, 100.4, 6.642, 1001.00, 70.722, 31.7939, 321.6, 0.1173, 
11:01:28, , , 43.619016, 13.506518, 0.00 , +32.5953, +07.2808, 182.9, 0.08, 100.4, 6.681, 1000.94, 70.675, 31.7934, 337.1, 0.0728, 
11:02:28, , , 43.619016, 13.506518, 0.00 , +32.5938, +07.2644, 182.9, 0.08, 100.4, 6.669, 1000.91, 70.872, 31.8068, 323.4, 0.1899, 
11:03:29, , , 43.619016, 13.506518, 0.00 , +32.5971, +07.2632, 182.9, 0.08, 100.4, 6.628, 1000.97, 71.393, 31.8115, 333.2, 0.1357, 
11:04:28, , , 43.619016, 13.506518, 0.00 , +32.6010, +07.2596, 182.9, 0.08, 100.4, 6.627, 1001.02, 71.453, 31.8190, 353.4, 0.0479, 
11:05:28, , , 43.619016, 13.506518, 0.00 , +32.5985, +07.2844, 182.9, 0.08, 100.4, 6.604, 1001.09, 71.607, 31.7935, 321.6, 0.1683, 
11:06:28, , , 43.619016, 13.506518, 0.00 , +32.5990, +07.2863, 182.9, 0.08, 100.4, 6.608, 1001.04, 71.824, 31.7923, 325.5, 0.2021, 
11:07:28, , , 43.619016, 13.506518, 0.00 , +32.6013, +07.2993, 182.9, 0.08, 100.4, 6.538, 1001.04, 71.258, 31.7828, 338.9, 0.1310, 
11:08:29, , , 43.619016, 13.506518, 0.00 , +32.6005, +07.2676, 182.9, 0.08, 100.5, 6.455, 1000.94, 71.617, 31.8111, 326.7, 0.2969, 
11:09:28, , , 43.619016, 13.506518, 0.00 , +32.5979, +07.2812, 182.9, 0.08, 100.4, 6.314, 1000.73, 72.556, 31.7958, 334.1, 0.7043, 
11:10:28, , , 43.619016, 13.506518, 0.00 , +32.5964, +07.2860, 182.9, 0.08, 100.4, 6.019, 1000.45, 73.891, 31.7898, 341.6, 2.1100, 
11:11:28, , , 43.619016, 13.506518, 0.00 , +32.6001, +07.2833, 182.9, 0.08, 100.3, 5.676, 1000.18, 74.501, 31.7962, 336.5, 2.8589, 
11:12:28, , , 43.619016, 13.506518, 0.00 , +32.6025, +07.2860, 182.9, 0.08, 100.4, 5.360, 1000.12, 75.667, 31.7964, 339.8, 4.4834, 
11:13:28, , , 43.619016, 13.506518, 0.00 , +32.6013, +07.2869, 182.9, 0.08, 100.4, 5.186, 1000.14, 77.340, 31.7942, 346.2, 5.2485, 
11:14:28, , , 43.619016, 13.506518, 0.00 , +32.6073, +07.2751, 182.9, 0.08, 100.3, 5.055, 1000.15, 77.923, 31.8116, 1.5, 4.2094, 
11:15:29, , , 43.619016, 13.506518, 0.00 , +32.6044, +07.2877, 182.9, 0.08, 100.3, 4.929, 1000.16, 77.730, 31.7968, 355.8, 4.6866, 
11:16:28, , , 43.619016, 13.506518, 0.00 , +32.6072, +07.2926, 182.9, 0.08, 100.3, 4.879, 1000.10, 77.856, 31.7954, 358.4, 4.8353, 
11:17:28, , , 43.619016, 13.506518, 0.00 , +32.6077, +07.2893, 182.9, 0.08, 100.3, 4.808, 1000.12, 77.904, 31.7989, 355.2, 4.4390, 
11:18:28, , , 43.619016, 13.506518, 0.00 , +32.6026, +07.2823, 182.9, 0.08, 100.3, 4.807, 1000.13, 78.317, 31.7999, 355.5, 4.6158, 
11:19:29, , , 43.619016, 13.506518, 0.00 , +32.6067, +07.3010, 182.9, 0.08, 100.3, 4.748, 1000.04, 78.275, 31.7871, 353.4, 4.7315, 
11:20:28, , , 43.619016, 13.506518, 0.00 , +32.6048, +07.3020, 182.9, 0.08, 100.3, 4.703, 1000.03, 77.952, 31.7841, 1.6, 5.0777, 
11:21:28, , , 43.619016, 13.506518, 0.00 , +32.6105, +07.2794, 182.9, 0.08, 100.3, 4.673, 1000.06, 77.591, 31.8111, 351.6, 5.1852, 
11:22:28, , , 43.619016, 13.506518, 0.00 , +32.6073, +07.2760, 182.9, 0.08, 100.3, 4.623, 1000.01, 77.736, 31.8107, 340.5, 5.4993, 
11:23:28, , , 43.619016, 13.506518, 0.00 , +32.6032, +07.2722, 182.9, 0.08, 100.2, 4.709, 1000.08, 78.876, 31.8095, 351.0, 4.2878, 
11:24:28, , , 43.619016, 13.506518, 0.00 , +32.5991, +07.2640, 182.9, 0.08, 100.2, 4.649, 1000.09, 78.663, 31.8129, 347.3, 4.9876, 
11:25:28, , , 43.619016, 13.506518, 0.00 , +32.6042, +07.2575, 182.9, 0.08, 100.2, 4.608, 1000.03, 78.275, 31.8244, 339.1, 5.0185, 
11:26:28, , , 43.619016, 13.506518, 0.00 , +32.5926, +07.2489, 182.9, 0.08, 100.2, 4.638, 1000.08, 78.336, 31.8224, 341.5, 5.6549, 
11:27:28, , , 43.619016, 13.506518, 0.00 , +32.5900, +07.2431, 182.9, 0.08, 100.5, 4.679, 1000.06, 78.854, 31.8223, 347.9, 4.4498, 
11:28:28, , , 43.619016, 13.506518, 0.00 , +32.5809, +07.2453, 182.9, 0.08, 100.3, 4.658, 1000.01, 78.449, 31.8104, 337.7, 4.0624, 
11:29:28, , , 43.619016, 13.506518, 0.00 , +32.5689, +07.2378, 182.9, 0.08, 100.2, 4.715, 1000.07, 78.449, 31.8060, 345.8, 4.5149, 
11:30:28, , , 43.619016, 13.506518, 0.00 , +32.5671, +07.2585, 182.9, 0.08, 100.3, 4.728, 1000.02, 78.453, 31.7787, 3.9, 2.9732, 
11:31:28, , , 43.619016, 13.506518, 0.00 , +32.5680, +07.2488, 182.9, 0.08, 100.3, 4.807, 999.96, 78.618, 31.7945, 350.0, 0.9288, 
11:32:28, , , 43.619016, 13.506518, 0.00 , +32.5702, +07.2551, 182.9, 0.08, 100.2, 4.817, 999.99, 78.679, 31.7919, 328.8, 2.5797, 
11:33:28, , , 43.619016, 13.506518, 0.00 , +32.5728, +07.2634, 182.9, 0.08, 100.1, 4.829, 999.97, 78.698, 31.7850, 323.9, 2.8164, 
11:34:28, , , 43.619016, 13.506518, 0.00 , +32.5736, +07.2526, 182.9, 0.08, 100.5, 4.780, 999.89, 77.901, 31.7958, 322.4, 2.8259, 
11:35:28, , , 43.619016, 13.506518, 0.00 , +32.5704, +07.2750, 182.9, 0.08, 100.5, 4.804, 999.92, 77.788, 31.7743, 328.8, 2.8075, 
11:36:28, , , 43.619016, 13.506518, 0.00 , +32.5729, +07.2879, 182.9, 0.08, 100.5, 4.829, 1000.00, 77.360, 31.7632, 318.4, 2.4082, 
11:37:28, , , 43.619016, 13.506518, 0.00 , +32.5747, +07.2861, 182.9, 0.08, 100.5, 4.819, 1000.03, 77.115, 31.7656, 318.9, 2.6840, 
11:38:28, , , 43.619016, 13.506518, 0.00 , +32.5798, +07.3074, 182.9, 0.08, 100.5, 4.907, 1000.00, 77.669, 31.7466, 303.4, 1.7586, 
11:39:28, , , 43.619016, 13.506518, 0.00 , +32.5802, +07.2861, 182.9, 0.08, 100.5, 4.962, 1000.03, 77.981, 31.7754, 300.8, 1.4053, 
11:40:29, , , 43.619016, 13.506518, 0.00 , +32.5862, +07.2809, 182.9, 0.08, 100.4, 4.926, 1000.03, 77.662, 31.7834, 313.9, 1.8485, 
11:41:28, , , 43.619016, 13.506518, 0.00 , +32.5873, +07.2757, 182.9, 0.08, 100.4, 4.889, 1000.05, 77.914, 31.7904, 323.9, 2.1035, 
11:42:28, , , , , 0.00 , +32.5879, +07.2788, N, M�43.2�, 100.4, 4.889, 1000.07, 77.914, 31.7872, 328.1, 2.3967, 
11:43:28, , , 43.618931, 13.506520, 0.00 , +32.5931, +07.2789, 060.3, 0.02, 100.5, 4.927, 1000.06, 77.923, 31.7927, 320.8, 2.5478, 
11:44:28, , , 43.618930, 13.506520, 0.00 , +32.5928, +07.2744, 321.3, 0.02, 100.5, 4.918, 1000.01, 77.562, 31.7965, 331.7, 2.3380, 
11:45:28, , , 43.618931, 13.506521, 0.00 , +32.6003, +07.2897, 333.4, 0.00, 100.4, 4.927, 1000.00, 77.347, 31.7906, 337.6, 3.4874, 
11:46:28, , , 43.618928, 13.506518, 0.00 , +32.5971, +07.2908, 278.1, 0.04, 100.3, 4.906, 1000.04, 77.379, 31.7861, 337.0, 4.4341, 
11:47:28, , , 43.618926, 13.506523, 0.00 , +32.5983, +07.3051, 114543.00, E, 100.4, 4.963, 1000.10, 78.330, 31.7743, 341.5, 3.7298, 
11:48:28, , , , , 0.00 , +32.5977, +07.2785, 11464���b����r�����b{�0��7r�����b, 90n%�j, 100.5, 5.016, 1000.11, 78.812, 31.7981, 341.1, 5.0926, 
11:49:28, , , , , 0.00 , +32.6000, +07.2818, o����, 1n���r���ߚ�r���, 100.4, 4.938, 1000.21, 78.676, 31.7975, 341.1, 5.0926, 
11:50:28, , , 43.618926, 13.506533, 0.00 , +32.5969, +07.2910, 206.6, 0.02, 100.4, 4.910, 1000.17, 78.453, 31.7857, 341.6, 5.6407, 
11:51:28, , , 43.618928, 13.506531, 0.00 , +32.6039, +07.3017, 270.0, 0.01, 100.3, 4.865, 1000.08, 78.301, 31.7834, 342.6, 5.7180, 
11:52:28, , , 43.618925, 13.506525, 0.00 , +32.6025, +07.3192, 036.9, 0.04, 100.3, 4.864, 1000.11, 78.301, 31.7659, 345.2, 5.1869, 
11:53:28, , , 43.618931, 13.506530, 0.00 , +32.6035, +07.2910, 090.0, 0.01, 100.3, 4.822, 1000.21, 78.353, 31.7928, 344.7, 5.7287, 
11:54:28, , , 43.618933, 13.506528, 0.00 , +32.5990, +07.3049, 000.0, 0.05, 100.3, 4.828, 1000.20, 78.621, 31.7752, 346.9, 5.2937, 
11:55:28, , , 43.618946, 13.506526, 0.00 , +32.5972, +07.3128, 351.9, 0.08, 100.2, 4.789, 1000.23, 78.469, 31.7660, 343.5, 5.7085, 
11:56:28, , , 43.618945, 13.506528, 0.00 , +32.6019, +07.3163, 090.0, 0.03, 100.2, 4.771, 1000.21, 78.214, 31.7679, 341.3, 5.4015, 
11:57:28, , , 43.618940, 13.506521, 0.00 , +32.6044, +07.2970, 318.8, 0.03, 100.2, 4.817, 1000.31, 78.559, 31.7883, 344.3, 5.1100, 
11:58:28, , , 43.618933, 13.506521, 0.00 , +32.6078, +07.2845, 004.4, 0.03, 100.2, 4.825, 1000.35, 78.537, 31.8035, 344.7, 4.7942, 
11:59:28, , , 43.618930, 13.506521, 0.00 , +32.6090, +07.2823, 180.0, 0.03, 100.2, 4.811, 1000.38, 78.369, 31.8068, 340.4, 4.9143, 
12:00:28, , , 43.618931, 13.506520, 0.00 , +32.6098, +07.2765, 323.1, 0.02, 100.1, 4.822, 1000.37, 78.685, 31.8130, 343.7, 4.9102, 
12:01:28, , , 43.618931, 13.506525, 0.00 , +32.6102, +07.2819, 288.4, 0.03, 100.2, 4.781, 1000.37, 78.637, 31.8084, 342.2, 5.2418, 
12:02:28, , , 43.618936, 13.506525, 0.00 , +32.6094, +07.2925, 090.0, 0.02, 100.2, 4.852, 1000.31, 79.230, 31.7978, 348.4, 4.9998, 
12:03:28, , , 43.618936, 13.506523, 0.00 , +32.6088, +07.2775, 064.5, 0.06, 100.1, 4.783, 1000.31, 78.220, 31.8110, 343.3, 5.5349, 
12:04:28, , , 43.618936, 13.506526, 0.00 , +32.6101, +07.2584, 225.0, 0.04, 100.0, 4.772, 1000.33, 78.666, 31.8300, 347.4, 4.5062, 
12:05:28, , , 43.618935, 13.506523, 0.00 , +32.5814, +07.2608, 157.6, 0.04, 100.1, 4.795, 1000.24, 79.213, 31.7967, 341.8, 4.8182, 
12:06:28, , , 43.618913, 13.506530, 0.00 , +32.5802, +07.2617, 175.6, 0.04, 100.1, 4.772, 1000.31, 78.815, 31.7946, 354.6, 5.2656, 
12:07:28, , , 43.618931, 13.506525, 0.00 , +32.5794, +07.2652, 153.4, 0.01, 100.1, 4.728, 1000.34, 79.106, 31.7905, 353.5, 4.9378, 
12:08:28, , , 43.618933, 13.506528, 0.00 , +32.5834, +07.2725, 015.9, 0.03, 100.0, 4.679, 1000.39, 78.783, 31.7881, 345.6, 5.4407, 
12:09:28, , , 43.618915, 13.506531, 0.00 , +32.5868, +07.2889, 294.0, 0.04, 100.0, 4.683, 1000.40, 78.948, 31.7767, 343.2, 5.0175, 
12:10:28, , , 43.618930, 13.506520, 0.00 , +32.5869, +07.2852, 164.7, 0.06, 100.0, 4.716, 1000.25, 78.990, 31.7802, 341.9, 5.7793, 
12:11:28, , , 43.618926, 13.506521, 0.00 , +32.5835, +07.2755, 311.6, 0.03, 100.0, 4.659, 1000.23, 78.417, 31.7855, 340.1, 5.9377, 
12:12:28, , , 43.618883, 13.506538, 0.00 , +32.5813, +07.2699, 358.1, 0.06, 100.0, 4.692, 1000.26, 78.698, 31.7882, 340.8, 6.2815, 
12:13:28, , , 43.618890, 13.506538, 0.00 , +32.5840, +07.2837, 358.1, 0.13, 100.0, 4.686, 1000.27, 79.029, 31.7785, 341.5, 5.9568, 
12:14:28, , , 43.618888, 13.506545, 0.00 , +32.5866, +07.2994, 198.4, 0.02, 100.0, 4.784, 1000.29, 79.824, 31.7669, 343.2, 5.9609, 
12:15:28, , , 43.618883, 13.506560, 0.00 , +32.5871, +07.2854, 135.0, 0.06, 100.0, 4.674, 1000.23, 79.632, 31.7803, 343.3, 6.6271, 
12:16:28, , , 43.618895, 13.506551, 0.00 , +32.5929, +07.2932, 331.6, 0.06, 100.0, 4.668, 1000.23, 80.436, 31.7794, 345.8, 5.6269, 
12:17:28, , , 43.618891, 13.506560, 0.00 , +32.5941, +07.2832, 078.7, 0.01, 100.0, 4.748, 1000.12, 81.773, 31.7899, 344.2, 5.7635, 
12:18:28, , , 43.618940, 13.506523, 0.00 , +32.5970, +07.2983, 160.5, 0.10, 100.0, 4.707, 1000.26, 81.324, 31.7791, 341.2, 6.1409, 
12:19:28, , , 43.618918, 13.506536, 0.00 , +32.5984, +07.2933, 157.6, 0.05, 100.0, 4.757, 1000.32, 82.197, 31.7852, 342.5, 5.2180, 
12:20:28, , , 43.618915, 13.506535, 0.00 , +32.6013, +07.2910, 225.0, 0.01, 100.0, 4.757, 1000.31, 82.552, 31.7905, 342.7, 5.5800, 
12:21:28, , , 43.618916, 13.506535, 0.00 , +32.5994, +07.3034, 279.5, 0.02, 100.0, 4.813, 1000.18, 82.990, 31.7770, 346.7, 5.0842, 
12:22:28, , , 43.618961, 13.506518, 0.00 , +32.6028, +07.3070, 104.0, 0.01, 100.0, 4.895, 1000.23, 83.555, 31.7774, 335.8, 5.9758, 
12:23:28, , , 43.618943, 13.506539, 0.00 , +32.6079, +07.3019, 101.3, 0.01, 100.0, 4.754, 1000.24, 82.997, 31.7876, 338.3, 4.8043, 
12:24:28, , , 43.618938, 13.506543, 0.00 , +32.6068, +07.2994, 270.0, 0.01, 100.0, 4.832, 1000.21, 83.300, 31.7887, 343.2, 5.0117, 
12:25:28, , , 43.618938, 13.506538, 0.00 , +32.6084, +07.3137, 296.6, 0.02, 100.0, 4.916, 1000.35, 83.429, 31.7773, 336.6, 4.2396, 
12:26:28, , , 43.618933, 13.506535, 0.00 , +32.6117, +07.2838, 311.2, 0.04, 100.0, 4.885, 1000.30, 83.079, 31.8083, 334.0, 5.5899, 
12:27:28, , , 43.618943, 13.506530, 0.00 , +32.6115, +07.3140, 159.4, 0.02, 100.0, 4.865, 1000.30, 83.066, 31.7803, 338.2, 4.6259, 
12:28:28, , , 43.618943, 13.506521, 0.00 , +32.6108, +07.3225, 031.0, 0.01, 100.0, 4.939, 1000.34, 83.429, 31.7718, 339.6, 6.3170, 
12:29:28, , , 43.618990, 13.506488, 0.00 , +32.6146, +07.3278, 234.5, 0.02, 100.0, 4.906, 1000.23, 83.545, 31.7710, 339.7, 5.7714, 
12:30:28, , , 43.618948, 13.506525, 0.00 , +32.6157, +07.3222, 194.0, 0.01, 100.1, 4.891, 1000.34, 83.565, 31.7774, 343.3, 6.2030, 
12:31:28, , , 43.618946, 13.506525, 0.00 , +32.6129, +07.3142, 000.0, 0.03, 100.1, 4.906, 1000.34, 83.671, 31.7817, 337.8, 5.6975, 
12:32:28, , , 43.618958, 13.506521, 0.00 , +32.6165, +07.3284, 033.7, 0.01, 100.1, 4.904, 1000.30, 83.697, 31.7725, 335.7, 6.1391, 
12:33:28, , , 43.618941, 13.506523, 0.00 , +32.6220, +07.3122, 235.5, 0.04, 100.1, 4.873, 1000.34, 83.489, 31.7933, 338.0, 4.5688, 
12:34:28, , , 43.618941, 13.506520, 0.00 , +32.6201, +07.3360, 240.3, 0.03, 100.1, 4.987, 1000.36, 83.922, 31.7694, 343.8, 4.1582, 
12:35:28, , , 43.618910, 13.506521, 0.00 , +32.6191, +07.3346, 090.0, 0.00, 100.2, 5.061, 1000.37, 84.105, 31.7696, 336.7, 4.8539, 
12:36:28, , , 43.618938, 13.506548, 0.00 , +32.6214, +07.3094, 138.4, 0.03, 100.1, 4.996, 1000.41, 83.787, 31.7953, 331.8, 4.5798, 
12:37:28, , , 43.618938, 13.506539, 0.00 , +32.6224, +07.3200, 045.0, 0.02, 100.1, 5.077, 1000.38, 83.899, 31.7866, 338.1, 5.6507, 
12:38:28, , , 43.618940, 13.506535, 0.00 , +32.6181, +07.3041, 352.9, 0.02, 100.1, 5.144, 1000.44, 84.028, 31.7966, 333.5, 4.1628, 
12:39:28, , , 43.618946, 13.506530, 0.00 , +32.6220, +07.2974, 270.0, 0.01, 100.2, 5.190, 1000.46, 84.085, 31.8069, 335.2, 5.0666, 
12:40:28, , , 43.618946, 13.506521, 0.00 , +32.6185, +07.3141, 116.6, 0.01, 100.2, 5.237, 1000.44, 84.098, 31.7878, 335.7, 5.6951, 
12:41:28, , , 43.618948, 13.506516, 0.00 , +32.6057, +07.2937, 090.0, 0.06, 100.1, 5.202, 1000.41, 83.926, 31.7927, 333.2, 5.9438, 
12:42:28, , , 43.618948, 13.506514, 0.00 , +32.6023, +07.3079, 206.6, 0.04, 100.2, 5.217, 1000.40, 83.922, 31.7760, 336.0, 5.1273, 
12:43:28, , , 43.618946, 13.506516, 0.00 , +32.6089, +07.3020, 291.8, 0.05, 100.2, 5.317, 1000.30, 84.304, 31.7886, 334.5, 5.0690, 
12:44:28, , , 43.618943, 13.506520, 0.00 , +32.6059, +07.3074, 127.6, 0.08, 100.0, 5.408, 1000.35, 84.506, 31.7804, 336.2, 5.5456, 
12:45:28, , , 43.618938, 13.506523, 0.00 , +32.6078, +07.2884, 260.5, 0.02, 100.2, 5.471, 1000.32, 83.717, 31.7999, 339.5, 5.5993, 
12:46:28, , , 43.618908, 13.506520, 0.00 , +32.6096, +07.3044, 187.6, 0.12, 100.2, 5.572, 1000.44, 82.003, 31.7871, 1.2, 4.9988, 
12:47:28, , , 43.618906, 13.506516, 0.00 , +32.6076, +07.3011, 303.7, 0.02, 100.2, 5.613, 1000.44, 80.400, 31.7880, 357.6, 4.6711, 
12:48:28, , , 43.618906, 13.506514, 0.00 , +32.6089, +07.3241, 270.0, 0.01, 100.2, 5.649, 1000.50, 79.437, 31.7683, 0.8, 5.9717, 
12:49:28, , , 43.618880, 13.506500, 0.00 , +32.6149, +07.3170, 206.6, 0.03, 100.2, 5.706, 1000.44, 81.796, 31.7813, 2.9, 6.2552, 
12:50:28, , , 43.619058, 13.506623, 0.00 , +32.6127, +07.3277, 142.0, 0.08, 100.2, 5.523, 1000.49, 82.483, 31.7691, 358.6, 6.1469, 
12:51:28, , , 43.619050, 13.506631, 0.00 , +32.6081, +07.3277, 270.0, 0.02, 100.2, 5.547, 1000.40, 83.244, 31.7641, 355.0, 6.1382, 
12:52:28, , , 43.618943, 13.506506, 0.00 , +32.6062, +07.3204, 170.5, 0.04, 100.2, 5.515, 1000.45, 83.492, 31.7688, 358.7, 6.5523, 
12:53:28, , , 43.618940, 13.506518, 0.00 , +32.6066, +07.2881, 170.1, 0.05, 100.2, 5.488, 1000.50, 83.760, 31.7989, 358.2, 5.9559, 
12:54:28, , , 43.618935, 13.506523, 0.00 , +32.5975, +07.2623, 290.6, 0.05, 100.2, 5.464, 1000.39, 83.826, 31.8128, 359.4, 5.7015, 
12:55:28, , , 43.618930, 13.506528, 0.00 , +32.5937, +07.2679, 167.0, 0.06, 100.3, 5.440, 1000.39, 83.684, 31.8035, 4.4, 5.9369, 
12:56:28, , , 43.618913, 13.506538, 0.00 , +32.5936, +07.2756, 230.2, 0.05, 100.3, 5.396, 1000.33, 83.145, 31.7963, 358.4, 5.9700, 
12:57:28, , , 43.618920, 13.506535, 0.00 , +32.5918, +07.2814, 167.5, 0.05, 100.3, 5.422, 1000.40, 82.862, 31.7890, 3.0, 5.6138, 
12:58:28, , , 43.618921, 13.506531, 0.00 , +32.5941, +07.2904, 007.1, 0.03, 100.4, 5.446, 1000.42, 82.552, 31.7832, 0.3, 5.5812, 
12:59:28, , , 43.618871, 13.506575, 0.00 , +32.5957, +07.2700, 326.3, 0.04, 100.3, 5.429, 1000.36, 82.256, 31.8037, 1.0, 6.1263, 
13:00:28, , , 43.618940, 13.506498, 0.00 , +32.5869, +07.2816, 153.4, 0.06, 100.4, 5.429, 1000.39, 82.147, 31.7835, 5.5, 5.7861, 
13:01:28, , , 43.618895, 13.506546, 0.00 , +32.5876, +07.2892, 335.8, 0.05, 100.3, 5.459, 1000.47, 82.815, 31.7773, 8.3, 5.5338, 
13:02:28, , , 43.618936, 13.506500, 0.00 , +32.5898, +07.2931, 139.8, 0.05, 100.4, 5.458, 1000.52, 82.914, 31.7761, 10.8, 5.1468, 
13:03:28, , , 43.618935, 13.506501, 0.00 , +32.5865, +07.3074, 171.9, 0.03, 100.4, 5.422, 1000.49, 82.371, 31.7594, 6.7, 5.0770, 
13:04:28, , , 43.618943, 13.506521, 0.00 , +32.5928, +07.3061, 246.0, 0.02, 100.4, 5.417, 1000.48, 82.009, 31.7674, 2.5, 4.5600, 
13:05:28, , , 43.618935, 13.506756, 0.00 , +32.5959, +07.2915, 018.4, 0.02, 100.4, 5.417, 1000.61, 81.626, 31.7842, 3.0, 4.8688, 
13:06:28, , , 43.618931, 13.506514, 0.00 , +32.5941, +07.2935, 188.1, 0.01, 100.4, 5.398, 1000.56, 80.824, 31.7804, 359.4, 6.2735, 
13:07:28, , , 43.618935, 13.506520, 0.00 , +32.5981, +07.3118, 026.6, 0.03, 100.4, 5.390, 1000.58, 80.240, 31.7679, 357.9, 6.1412, 
13:08:28, , , 43.618938, 13.506516, 0.00 , +32.5956, +07.3090, 188.1, 0.03, 100.4, 5.437, 1000.55, 80.152, 31.7678, 358.6, 5.8943, 
13:09:28, , , 43.618946, 13.506516, 0.00 , +32.5995, +07.3263, 155.9, 0.06, 100.4, 5.410, 1000.47, 79.363, 31.7561, 0.2, 6.0500, 
13:10:28, , , 43.618951, 13.506521, 0.00 , +32.6032, +07.3301, 301.3, 0.08, 100.5, 5.420, 1000.54, 79.298, 31.7566, 356.8, 5.5825, 
13:11:28, , , 43.618951, 13.506516, 0.00 , +32.6076, +07.3263, 310.2, 0.08, 100.4, 5.452, 1000.64, 79.281, 31.7648, 1.4, 4.6226, 
13:12:28, , , 43.618951, 13.506523, 0.00 , +32.6084, +07.3181, 205.0, 0.03, 100.4, 5.538, 1000.55, 79.713, 31.7732, 358.3, 5.9181, 
13:13:28, , , 43.618948, 13.506523, 0.00 , +32.6120, +07.3020, 045.0, 0.02, 100.4, 5.506, 1000.59, 79.042, 31.7919, 358.6, 6.0944, 
13:14:28, , , 43.618941, 13.506511, 0.00 , +32.6148, +07.2987, 288.4, 0.01, 100.4, 5.512, 1000.54, 78.702, 31.7980, 358.8, 5.5202, 
13:15:28, , , 43.618946, 13.506521, 0.00 , +32.6181, +07.2886, 008.1, 0.02, 100.4, 5.503, 1000.54, 77.524, 31.8108, 0.5, 5.5894, 
13:16:28, , , 43.618955, 13.506530, 0.00 , +32.6239, +07.2984, 298.3, 0.04, 100.3, 5.608, 1000.55, 77.656, 31.8081, 359.3, 3.6605, 
13:17:28, , , 43.618948, 13.506516, 0.00 , +32.6217, +07.2974, 258.7, 0.01, 100.2, 5.754, 1000.53, 79.045, 31.8066, 343.8, 5.6395, 
13:18:28, , , 43.618946, 13.506510, 0.00 , +32.6317, +07.3040, 050.2, 0.03, 100.4, 5.745, 1000.53, 78.608, 31.8114, 355.9, 5.9887, 
13:19:28, , , 43.618945, 13.506513, 0.00 , +32.6272, +07.3060, 307.9, 0.02, 100.4, 5.756, 1000.66, 78.466, 31.8047, 1.0, 5.5783, 
13:20:28, , , 43.618940, 13.506516, 0.00 , +32.6238, +07.3149, 221.2, 0.05, 100.5, 5.811, 1000.52, 78.508, 31.7928, 16.9, 2.9893, 
13:21:28, , , 43.618946, 13.506518, 0.00 , +32.6248, +07.3149, 135.0, 0.09, 100.5, 5.866, 1000.49, 78.459, 31.7939, 344.7, 2.7965, 
13:22:28, , , 43.618953, 13.506518, 0.00 , +32.6306, +07.3327, 199.3, 0.06, 100.1, 5.960, 1000.54, 78.893, 31.7838, 358.5, 2.3223, 
13:23:28, , , 43.618953, 13.506526, 0.00 , +32.6306, +07.3340, 313.0, 0.09, 100.3, 5.951, 1000.64, 78.608, 31.7826, 323.1, 2.4752, 
13:24:28, , , 43.618941, 13.506491, 0.00 , +32.6359, +07.3253, 258.7, 0.07, 100.3, 6.070, 1000.43, 77.985, 31.7963, 330.6, 5.4988, 
13:25:28, , , 43.618946, 13.506508, 0.00 , +32.6391, +07.3351, 315.0, 0.03, 100.3, 5.965, 1000.56, 75.958, 31.7908, 337.6, 7.2115, 
13:26:28, , , 43.618946, 13.506518, 0.00 , +32.6403, +07.3351, 111.8, 0.03, 100.2, 5.882, 1000.51, 78.508, 31.7921, 342.4, 6.6444, 
13:27:28, , , 43.618943, 13.506523, 0.00 , +32.6472, +07.3214, 003.4, 0.07, 100.2, 5.862, 1000.57, 78.990, 31.8121, 347.6, 6.3001, 